User: anonymous   Login
Location: Baix
(44.7118°N, 4.7648°E)
Time: 11:27:34
(UTC+00:00)
Language:

CENTAUR R/B - Orbit

View from above orbital plane
View from above orbital plane
View from above satellite
View from above satellite

Ground track
Ground track

The orbit data is extracted from the following two-line orbital elements,

1 26906U 01040B   20300.21501592 0.00000052  00000-0  47931-4 0    06
2 26906  63.4525  64.7227 0455827 339.8776  20.2895 13.44066194    06
Epoch (UTC): 26 October 2020 05:09:37
Eccentricity: 0.0455827
inclination: 63.4525°
perigee height: 753 km
apogee height: 1435 km
right ascension of ascending node: 64.7227°
argument of perigee: 339.8776°
revolutions per day: 13.44066194
mean anomaly at epoch: 20.2895°
orbit number at epoch: 0

The dashed part of the orbit path shows where the satellite is in the earth's shadow,  

DLR